Waukesha, WI

10:44 AM CDT on August 17, 2017 (GMT -0500)
Waukesha County

Weather History for KUES - September, 2012

Change the Weather History Date:

Friday, September 21, 2012

  Actual Average Record
Temperature  
Mean Temperature 47 °F -  
Max Temperature 55 °F 65 °F 87 °F (2005)
Min Temperature 39 °F 49 °F 35 °F (1956)
Degree Days  
Heating Degree Days 18    
Moisture  
Dew Point 40 °F    
Average Humidity 78    
Maximum Humidity 93    
Minimum Humidity 51    
Precipitation  
Precipitation 0.00 in - - ()
Sea Level Pressure  
Sea Level Pressure 29.87 in    
Wind  
Wind Speed 4 mph (SW)    
Max Wind Speed 14 mph    
Max Gust Speed -    
Visibility 10 miles    
Events Rain    
Averages and records for this station are not official NWS values.
T = Trace of Precipitation, MM = Missing Value Source: NWS Daily Summary

Daily Weather History Graph

Daily Weather History Graph

Search for Another Location

Airport or City:

Trip Planner

Search our weather history database for the weather conditions in past years. The results will help you decide how hot, cold, wet, or windy it might be!

Date:

Astronomy

Sep. 21, 2012 Rise Set
Actual Time 6:39 AM CDT 6:51 PM CDT
Civil Twilight 6:11 AM CDT 7:19 PM CDT
Nautical Twilight 5:38 AM CDT 7:52 PM CDT
Astronomical Twilight 5:03 AM CDT 8:26 PM CDT
Moon 1:10 PM CDT (9/21) 10:42 PM CDT (9/21)
Length of Visible Light 13h 08m
Length of Day
12h 11m
Waxing Crescent, 37% of the Moon is Illuminated
Sep 21
Waxing Crescent
Sep 22
First Quarter
Sep 29
Full
Oct 8
Last Quarter
Oct 15
New

Hourly Weather History & Observations

Time (CDT) Temp. Windchill Dew Point Humidity Pressure Visibility Wind Dir Wind Speed Gust Speed Precip Events Conditions
12:15 AM 44.6 °F - 33.8 °F 66% 29.92 in 10.0 mi Calm Calm - N/A   Clear
12:35 AM 42.8 °F - 33.8 °F 70% 29.92 in 10.0 mi Calm Calm - N/A   Clear
12:55 AM 41.0 °F - 33.8 °F 76% 29.92 in 10.0 mi Calm Calm - N/A   Clear
1:15 AM 41.0 °F - 33.8 °F 76% 29.92 in 10.0 mi Calm Calm - N/A   Clear
1:35 AM 39.2 °F 37.0 °F 33.8 °F 81% 29.93 in 10.0 mi SSE 3.5 mph - N/A   Clear
1:55 AM 42.8 °F - 35.6 °F 76% 29.93 in 10.0 mi Calm Calm - N/A   Clear
2:15 AM 42.8 °F - 33.8 °F 70% 29.92 in 10.0 mi Calm Calm - N/A   Clear
2:35 AM 41.0 °F - 33.8 °F 76% 29.92 in 10.0 mi Calm Calm - N/A   Clear
2:55 AM 42.8 °F 41.1 °F 35.6 °F 76% 29.91 in 10.0 mi South 3.5 mph - N/A   Clear
3:15 AM 42.8 °F 41.1 °F 35.6 °F 76% 29.91 in 10.0 mi SSW 3.5 mph - N/A   Clear
3:35 AM 42.8 °F - 35.6 °F 76% 29.90 in 10.0 mi Calm Calm - N/A   Clear
3:55 AM 42.8 °F - 35.6 °F 76% 29.90 in 10.0 mi Calm Calm - N/A   Clear
4:15 AM 42.8 °F 40.1 °F 35.6 °F 76% 29.90 in 10.0 mi SSW 4.6 mph - N/A   Clear
4:35 AM 42.8 °F 40.1 °F 35.6 °F 76% 29.90 in 10.0 mi SSW 4.6 mph - N/A   Scattered Clouds
4:55 AM 44.6 °F 41.4 °F 35.6 °F 71% 29.90 in 10.0 mi SSW 5.8 mph - N/A   Clear
5:15 AM 44.6 °F 42.2 °F 35.6 °F 71% 29.90 in 10.0 mi SSW 4.6 mph - N/A   Scattered Clouds
5:35 AM 44.6 °F 40.7 °F 35.6 °F 71% 29.90 in 10.0 mi SSW 6.9 mph - N/A   Overcast
6:45 AM 48.2 °F - 35.6 °F 62% 29.89 in 10.0 mi SSW 5.8 mph - N/A   Overcast
7:45 AM 48.2 °F - 37.4 °F 66% 29.88 in 10.0 mi SSW 5.8 mph - N/A   Scattered Clouds
8:45 AM 51.8 °F - 37.4 °F 58% 29.89 in 10.0 mi SW 6.9 mph - N/A   Overcast
9:45 AM 55.4 °F - 37.4 °F 51% 29.88 in 10.0 mi WSW 12.7 mph - N/A   Clear
10:45 AM 55.4 °F - 39.2 °F 54% 29.89 in 10.0 mi WSW 12.7 mph - N/A Rain Light Rain
11:45 AM 48.2 °F - 46.4 °F 93% 29.91 in 7.0 mi WSW 13.8 mph - N/A Rain Light Rain
12:45 PM 50.0 °F - 46.4 °F 87% 29.90 in 7.0 mi WSW 8.1 mph - N/A Rain Light Rain
1:45 PM 51.8 °F - 48.2 °F 88% 29.86 in 10.0 mi West 12.7 mph - N/A   Scattered Clouds
2:45 PM 53.6 °F - 46.4 °F 77% 29.83 in 10.0 mi SW 10.4 mph - N/A   Scattered Clouds
3:45 PM 53.6 °F - 46.4 °F 77% 29.82 in 10.0 mi SW 6.9 mph - N/A   Mostly Cloudy
4:45 PM 53.6 °F - 46.4 °F 77% 29.81 in 10.0 mi SW 9.2 mph - N/A   Mostly Cloudy
5:45 PM 51.8 °F - 46.4 °F 82% 29.80 in 10.0 mi SW 9.2 mph - N/A   Mostly Cloudy
6:45 PM 51.8 °F - 46.4 °F 82% 29.81 in 10.0 mi WSW 6.9 mph - N/A   Mostly Cloudy
7:45 PM 50.0 °F - 46.4 °F 87% 29.81 in 10.0 mi SW 5.8 mph - N/A   Mostly Cloudy
8:45 PM 50.0 °F - 46.4 °F 87% 29.80 in 10.0 mi SW 5.8 mph - N/A   Mostly Cloudy
9:15 PM 50.0 °F - 46.4 °F 87% 29.80 in 10.0 mi WSW 4.6 mph - N/A   Overcast
9:35 PM 50.0 °F - 46.4 °F 87% 29.80 in 10.0 mi WSW 4.6 mph - N/A   Overcast
9:55 PM 50.0 °F - 46.4 °F 87% 29.80 in 10.0 mi SW 4.6 mph - N/A   Overcast
10:15 PM 48.2 °F - 46.4 °F 93% 29.81 in 10.0 mi WNW 8.1 mph - N/A   Overcast
10:35 PM 50.0 °F - 46.4 °F 87% 29.81 in 10.0 mi West 6.9 mph - N/A   Overcast
10:55 PM 48.2 °F - 46.4 °F 93% 29.81 in 10.0 mi West 5.8 mph - N/A   Overcast
11:15 PM 46.4 °F 44.3 °F 44.6 °F 93% 29.80 in 10.0 mi West 4.6 mph - N/A   Mostly Cloudy
11:35 PM 46.4 °F - 44.6 °F 93% 29.79 in 10.0 mi Calm Calm - N/A   Mostly Cloudy
11:55 PM 46.4 °F 44.3 °F 44.6 °F 93% 29.79 in 10.0 mi SW 4.6 mph - N/A   Overcast